Regional Weather Roundup
Issued by NWS

Home | Current Version | Previous Version | Text Only | Print | Product List | Glossary On
Versions: 1 2 3 4 5 6 7 8 9 10 11 12 13 14 15 16 17 18 19 20 21 22 23 24 25 26 27 28 29 30 31 32 33 34 35 36 37 38 39 40 41 42 43 44 45 46 47 48 49
000
ASUS46 KPQR 290810
RWROR

OREGON REGIONAL WEATHER ROUNDUP
NATIONAL WEATHER SERVICE PORTLAND OR
100 AM PDT FRI AUG 29 2014

NOTE: "FAIR" INDICATES FEW OR NO CLOUDS BELOW 12,000 FEET WITH
NO SIGNIFICANT WEATHER AND/OR OBSTRUCTIONS TO VISIBILITY.

ORZ001>013-290900-
NORTHWEST OREGON


CITY           SKY/WX    TMP DP  RH WIND       PRES   REMARKS
ASTORIA        CLOUDY    62  58  86 SW3       30.02F
NEWPORT        FOG       55  55 100 CALM      30.07S VSB 3/4
PORTLAND       PTCLDY    66  60  81 NW6       30.00F
VANCOUVER WA   CLEAR     66  58  75 NW5       30.00S
SCAPPOOSE      CLEAR     64  58  80 NW6       29.99F
HILLSBORO      CLEAR     63  58  83 CALM      30.00S
AURORA         CLEAR     65  58  78 N3        30.01S
MCMINNVILLE    CLEAR     61  57  87 W7        30.01S
SALEM          CLEAR     64  56  75 CALM      29.99F
CORVALLIS      CLEAR     63  57  82 W12       30.02F
EUGENE         CLEAR     63  51  65 CALM      30.02R
$$

ORZ021-028-290900-
SOUTHWEST OREGON


CITY           SKY/WX    TMP DP  RH WIND       PRES   REMARKS
NORTH BEND     CLOUDY    57  57 100 W5        30.06F
BROOKINGS      FOG       55  55 100 CALM      30.01F VSB<1/4
ROSEBURG       CLEAR     68  50  52 CALM      30.02R
SEXTON SUMMIT  CLEAR     60  52  74 N7        30.10F
MEDFORD        CLEAR     72  49  44 CALM      29.99R
$$

ORZ009-041-290900-
COLUMBIA GORGE


CITY           SKY/WX    TMP DP  RH WIND       PRES   REMARKS
TROUTDALE      PTCLDY    67  60  78 CALM      29.99S
THE DALLES     PTCLDY    71  53  52 CALM      29.94S
$$

ORZ029>031-042>050-061>064-290900-
EASTERN OREGON


CITY           SKY/WX    TMP DP  RH WIND       PRES   REMARKS
REDMOND        CLEAR     56  44  64 CALM      30.06R
BEND           SUNNY     55  41  58 CALM      30.09S
KLAMATH FALLS  CLOUDY    56  47  71 E3        30.11S
LAKEVIEW       CLEAR     55  36  47 NW7       30.16S
HERMISTON      PTCLDY    65  51  60 S8        29.94R
PENDLETON      CLEAR     59  37  44 E8        29.98R
JOHN DAY       SUNNY     65  37  34 SW6       30.08S
MEACHAM        CLEAR     43  33  68 CALM      30.08F
LA GRANDE      CLEAR     52  25  35 NE3       30.02S
BAKER CITY     CLEAR     52  38  58 SW5       30.06S
BURNS          CLEAR     57  38  48 W12       30.09R
ROME             N/A     64  33  31 S6        30.05R
ONTARIO        CLEAR     74  39  28 NW12      29.95S
$$


USA.gov is the U.S. government's official web portal to all federal, state and local government web resources and services.